Location: Cactus School
(34.5700°N, 118.0931°W)
Time: 08:19:50
(UTC-07:00)

Vanguard 2 - Pass Details

Date: 24 April 2024
Orbit: 553 x 2914 km, 32.9° (Epoch: 22 May)

Event Time Altitude Azimuth Distance (km) Brightness Sun altitude
Exits shadow 01:10:19 56° 115° (ESE) 2,950 10.1 -42.1°
Drops below altitude 10° 01:24:18 10° 80° (E) 5,731 12.1 -41.7°
Sets 01:28:54 0° 78° (ENE) 6,756 12.6 -41.5°
